Theta_e
316 315 315 316 317 317 317 317 317 316 315 315 315 316 314 314 314 317 319 318 320 321 321 322 319 319 326 349 348 353 355 362 361 356 356 354 359 356 355 357 355 355 354 352 354
317 317 316 315 316 316 316 315 315 314 313 315 316 316 314 313 318 321 317 317 317 318 322 318 318 317 327 354 352 351 355 358 354 353 352 356 356 357 357 357 357 356 352 353 353
315 315 314 314 314 314 314 314 313 313 313 314 316 316 314 315 321 315 324 323 320 316 323 320 319 319 328 353 356 354 355 351 354 352 352 357 356 356 358 360 357 357 354 354 353
315 314 313 312 312 312 313 313 313 313 313 315 316 314 314 320 315 324 320 320 321 318 320 320 320 324 326 339 353 351 350 352 353 352 352 352 351 356 355 355 353 353 351 353 354
314 314 313 312 311 311 312 313 314 314 314 315 316 313 317 319 318 319 320 319 321 321 320 318 320 323 326 328 334 350 348 350 351 350 349 349 354 359 360 355 353 353 352 352 353
315 314 313 311 311 311 312 313 314 314 314 315 314 313 322 316 316 320 322 322 321 319 321 318 321 322 323 327 330 346 349 350 349 349 350 359 360 358 359 353 354 355 354 352 352
314 314 313 311 311 311 312 313 314 315 315 315 312 318 321 315 318 322 321 325 330 325 323 324 323 325 324 327 331 336 344 346 350 350 351 354 352 358 358 355 355 354 354 351 351
313 314 313 312 311 311 312 314 315 315 315 313 313 320 315 317 318 320 320 321 322 322 322 322 324 323 324 326 333 335 335 341 342 349 349 345 348 355 356 356 357 355 353 352 352
312 313 313 312 311 310 312 314 316 315 316 315 318 320 320 321 324 322 322 322 324 323 320 321 321 322 326 330 333 332 336 336 336 348 350 347 344 357 355 356 359 357 355 353 352
312 312 313 312 310 311 313 315 318 316 319 321 321 318 316 320 324 324 323 323 321 318 318 321 318 321 319 323 334 335 336 335 335 337 347 350 343 351 352 356 358 356 355 352 353
312 311 312 311 310 311 313 315 317 318 322 315 314 318 318 319 321 322 323 321 319 317 318 317 319 321 323 324 329 330 334 334 335 338 341 345 344 349 348 356 356 351 353 348 347
311 311 311 311 311 312 313 311 315 317 318 317 319 319 319 320 322 321 321 321 318 317 316 317 317 319 322 325 327 330 332 332 333 338 340 340 349 348 345 350 345 345 354 350 346
311 311 310 309 312 315 314 318 319 319 319 319 318 320 321 320 322 321 317 317 317 315 315 314 318 319 322 322 323 324 328 330 332 339 336 338 340 347 348 344 344 348 349 348 348
311 311 310 310 314 312 313 319 320 319 316 318 321 321 321 319 320 319 317 317 317 317 314 316 316 320 321 321 322 324 326 330 336 335 337 335 336 339 346 347 344 344 350 351 347
311 310 310 310 310 310 318 321 320 316 313 317 320 322 319 318 320 320 317 317 318 317 314 315 318 320 320 320 323 323 327 331 334 331 334 337 335 333 342 346 346 343 345 350 349
311 311 310 311 311 317 321 322 317 318 317 321 320 323 320 319 321 319 320 318 317 318 317 315 318 318 319 320 320 322 328 327 330 328 331 336 334 334 336 339 337 341 343 348 351
311 311 310 310 314 320 320 315 319 323 320 322 320 318 318 318 321 320 319 317 316 317 317 318 318 319 319 320 319 326 325 329 332 333 333 337 338 335 333 336 336 338 341 342 351
311 315 317 317 316 316 319 319 326 322 323 321 324 318 318 316 318 318 318 317 315 315 313 317 319 318 319 319 320 322 325 329 335 335 334 339 339 335 334 334 334 336 339 340 338
318 317 318 322 319 318 316 323 323 324 325 325 323 318 317 317 318 318 316 315 316 314 317 315 317 318 319 319 320 322 327 325 326 324 335 334 337 335 335 334 333 332 337 339 339
318 318 320 321 319 318 319 323 323 322 324 324 326 322 321 316 317 316 315 316 316 314 314 316 319 318 321 320 322 324 324 327 322 328 331 330 342 338 336 335 335 337 335 338 337
319 323 322 320 320 317 322 322 325 323 323 325 324 324 323 323 314 315 317 318 316 314 313 313 315 317 318 319 320 323 325 321 321 322 328 337 339 333 336 334 337 338 337 334 337
313 328 321 320 320 316 321 322 322 322 322 323 322 322 323 324 319 315 318 319 317 313 314 313 311 314 316 316 319 321 323 321 324 325 325 333 331 332 333 334 335 335 338 341 345
315 320 320 318 322 321 319 322 323 325 325 324 327 327 327 323 327 324 321 320 319 315 313 313 311 314 315 315 319 323 321 318 316 317 323 327 328 330 333 334 334 336 345 349 352
316 331 322 317 315 322 327 331 328 327 329 325 328 328 330 326 324 328 334 321 318 317 334 319 309 313 316 317 319 323 323 318 318 320 320 321 323 331 335 336 336 334 343 350 351
315 328 322 325 324 328 330 332 336 336 329 328 327 331 333 330 337 339 336 334 320 330 320 314 315 312 314 317 321 322 323 320 321 319 322 324 324 326 332 335 334 331 344 351 350
320 321 317 324 325 330 327 333 335 335 334 332 327 333 334 336 339 337 337 336 336 334 313 310 316 312 317 319 321 323 323 322 321 321 319 322 326 326 328 332 331 330 333 349 350
311 314 315 318 323 332 331 333 334 334 334 331 330 334 337 337 338 336 333 331 333 336 317 313 313 314 317 320 320 320 322 324 333 346 331 323 322 326 331 332 333 331 330 342 349
Wind_Speed
15 16 16 17 19 18 19 18 17 17 17 17 17 17 17 19 19 9 6 9 1 3 3 11 5 10 6 4 3 2 3 3 3 1 3 10 7 7 5 12 2 6 8 14 29
16 16 17 17 18 19 19 18 18 18 17 16 16 17 16 17 16 13 19 16 12 7 2 5 6 7 3 3 1 3 2 7 5 2 5 5 14 9 5 8 3 6 16 30 30
18 18 18 18 18 18 18 19 18 18 17 16 15 15 15 13 5 7 7 6 11 9 4 5 7 1 1 3 3 4 5 6 5 6 4 9 8 4 13 5 6 16 22 21 27
19 20 20 20 20 20 20 20 20 19 18 16 14 14 11 4 4 2 5 6 3 12 5 3 1 4 3 2 5 4 8 7 3 3 8 9 8 6 8 3 12 18 23 21 20
20 20 21 22 22 22 22 21 20 20 18 15 13 11 3 3 9 4 7 6 5 8 8 5 2 2 1 3 3 5 8 4 2 5 8 7 4 4 2 9 15 17 19 19 18
20 21 21 21 22 23 23 21 20 18 16 13 11 5 1 3 6 7 6 6 2 6 4 5 5 5 3 6 2 5 12 5 5 8 7 8 4 2 4 9 15 18 18 18 18
21 22 23 22 23 24 24 21 19 17 13 11 8 2 1 14 4 3 5 8 3 5 2 5 3 1 5 6 3 8 6 5 5 6 3 12 2 6 10 12 13 14 16 15 17
22 23 24 23 23 25 24 22 19 14 8 8 2 2 7 8 8 15 14 18 15 14 14 14 9 4 3 4 7 5 5 4 6 5 4 2 6 4 9 14 12 11 11 15 14
22 23 24 25 24 26 26 22 17 5 4 1 2 2 9 10 8 13 16 8 9 6 5 7 3 2 4 3 5 6 2 2 4 10 6 6 2 5 7 10 13 11 10 12 7
22 24 25 26 26 26 26 19 4 1 1 0 2 3 6 2 5 4 12 10 3 4 5 3 5 3 3 4 2 3 4 7 5 4 7 8 3 9 8 13 13 9 7 6 7
22 24 26 26 24 27 26 4 3 1 1 8 5 4 6 10 8 3 7 6 3 6 2 2 3 6 9 6 5 2 3 7 13 10 6 9 4 10 12 13 10 8 9 8 11
23 25 26 27 29 19 7 1 2 3 8 10 14 9 15 3 5 5 6 5 5 5 2 3 8 9 7 3 3 3 6 10 12 12 5 4 2 4 12 8 9 12 12 12 7
23 25 27 29 20 2 6 4 8 13 2 8 6 7 5 10 8 8 10 6 4 6 6 7 4 7 2 4 4 3 5 8 9 3 5 5 5 2 3 4 6 6 9 13 17
23 23 24 34 1 11 6 3 19 6 4 7 4 8 7 8 5 9 11 7 2 10 7 5 5 5 1 6 5 6 4 10 7 3 3 4 3 5 6 10 7 7 7 11 16
23 23 23 22 17 6 2 18 3 2 3 2 4 2 2 10 3 6 8 5 8 4 7 8 6 4 5 13 6 11 2 5 4 5 4 4 4 7 2 7 10 8 11 14 15
27 27 23 9 7 10 12 10 4 5 5 7 1 0 2 2 2 1 4 4 5 4 2 8 1 6 9 7 9 7 2 7 5 4 3 1 4 6 4 7 6 7 12 15 13
32 26 17 7 5 3 14 2 5 3 6 6 2 1 2 1 3 2 5 5 6 5 5 5 5 4 4 5 2 4 6 2 3 4 5 2 2 10 5 7 7 10 15 14 12
31 18 9 13 3 8 3 5 2 4 6 5 5 3 6 7 3 4 4 3 2 5 3 6 6 8 4 9 8 7 9 6 5 4 5 2 5 6 6 5 6 10 14 12 11
18 4 5 3 15 1 5 3 6 5 4 8 10 4 3 2 4 4 7 8 8 9 5 5 6 4 5 6 9 4 4 4 8 4 3 3 7 11 3 1 7 9 10 13 13
9 4 3 2 17 4 5 5 5 5 6 4 4 6 7 4 5 7 7 6 6 10 6 5 2 2 3 4 3 7 4 3 3 4 3 4 5 6 4 7 7 3 10 12 10
4 2 4 16 7 5 3 6 5 6 5 4 4 5 7 5 8 6 7 6 9 9 9 7 4 6 4 1 5 2 0 6 5 4 6 3 6 7 7 7 8 8 8 10 12
4 2 5 15 3 2 2 5 4 7 6 7 5 8 6 5 6 8 9 9 10 10 10 8 5 5 12 6 2 4 8 5 5 5 2 4 7 5 10 8 7 10 10 7 9
2 1 10 4 1 2 4 5 7 5 5 4 3 4 4 6 3 5 5 12 12 10 12 8 1 2 10 7 3 3 5 5 5 4 6 6 7 2 5 8 7 7 8 6 9
1 2 3 1 1 3 2 5 4 4 7 5 6 4 3 5 3 5 4 6 11 14 10 10 5 8 7 8 4 1 2 5 6 3 4 7 5 6 9 10 8 8 6 7 10
1 1 2 3 4 4 2 4 3 4 3 2 2 1 2 5 5 3 3 6 2 4 9 9 9 6 8 5 4 3 2 6 5 7 7 12 9 9 12 13 12 7 5 8 7
1 1 2 3 2 3 6 5 3 3 3 4 4 9 6 5 1 4 3 2 1 5 5 2 5 8 6 6 7 4 3 5 5 1 7 4 8 8 8 4 7 9 8 9 12
4 2 3 3 1 1 4 4 4 4 6 8 7 7 6 5 3 9 7 4 4 3 1 5 7 4 7 5 6 2 3 2 6 3 3 4 9 2 6 9 11 12 11 13 15
Wind_Direction
351 345 345 342 340 341 341 340 341 339 337 334 332 334 332 325 321 299 238 236 224 190 328 335 349 343 110 89 100 142 76 144 242 284 63 131 117 154 98 143 211 186 150 151 146
347 346 344 342 341 339 339 340 339 338 337 333 330 336 334 331 324 274 267 260 248 234 311 353 322 358 60 92 104 92 118 219 203 210 103 116 132 144 124 172 55 93 113 135 144
345 345 343 343 340 338 338 339 341 339 336 331 330 334 334 335 329 253 325 288 244 214 220 281 290 352 59 128 182 154 214 189 225 201 113 141 147 137 140 206 186 154 145 149 153
342 343 342 343 340 340 339 340 340 340 335 329 332 337 333 343 240 273 359 17 168 177 192 222 335 346 9 197 186 251 233 236 126 268 153 181 147 160 190 217 140 157 156 151 163
341 340 340 340 341 340 339 337 336 335 331 328 332 341 14 5 254 271 332 335 125 178 188 169 149 139 298 295 292 203 273 252 26 111 120 122 133 137 63 118 128 147 154 162 168
340 338 338 338 336 336 334 332 331 328 325 325 331 352 355 267 260 287 271 265 192 181 181 159 181 194 244 239 193 226 236 218 166 161 141 128 153 118 140 128 135 151 163 172 173
338 337 335 336 333 332 329 328 327 323 317 318 329 39 337 238 200 358 291 250 245 220 177 213 199 82 325 316 258 279 170 108 176 164 142 117 293 243 132 146 147 160 178 178 182
337 335 333 332 332 331 326 325 318 313 305 316 35 107 248 266 274 273 266 269 264 259 244 264 251 191 178 288 324 337 75 133 183 154 154 99 239 255 154 149 171 178 187 196 191
336 334 331 330 331 331 325 326 317 294 294 339 116 146 264 305 273 249 223 237 272 280 284 259 160 170 41 57 349 7 214 233 298 194 149 204 231 192 187 165 185 178 193 205 201
335 333 330 328 332 333 325 325 340 248 141 222 258 339 275 304 299 252 215 214 264 348 1 135 63 97 50 74 238 16 2 317 278 253 189 200 227 182 186 194 190 176 144 127 174
332 332 329 327 333 333 331 356 16 6 165 205 193 263 284 332 335 271 198 117 79 58 207 7 114 211 225 153 198 302 261 277 284 286 152 209 178 193 201 208 188 191 153 172 186
331 332 329 328 333 322 314 30 26 34 303 237 247 255 266 320 297 301 173 146 132 199 143 16 220 221 128 186 236 227 289 289 291 281 155 127 101 171 193 217 213 184 177 193 221
329 330 329 331 333 358 324 260 340 331 221 286 207 212 199 157 206 258 149 145 149 173 198 171 255 139 165 281 298 278 230 283 251 242 50 91 344 325 199 245 210 201 185 201 220
327 328 330 337 33 331 281 327 329 173 29 274 244 263 165 154 261 214 178 143 190 193 146 220 236 191 151 254 135 290 217 261 255 109 182 41 244 283 238 228 224 195 202 215 229
325 324 326 328 296 283 335 325 23 125 343 267 234 342 200 153 178 222 170 55 158 186 124 230 157 158 195 238 142 242 74 234 233 79 100 356 83 267 101 258 248 227 230 231 229
327 324 322 329 258 263 334 337 119 44 258 323 151 76 135 258 182 70 126 78 162 168 177 229 214 155 207 262 194 269 260 36 28 95 39 7 108 281 200 212 250 223 226 235 233
324 318 301 269 234 205 346 42 47 145 335 318 339 33 187 314 227 66 140 148 164 145 246 340 273 249 168 264 13 115 68 319 350 33 213 42 51 240 221 215 205 209 241 231 219
323 315 285 232 108 283 327 54 150 237 256 300 295 239 162 151 234 169 129 219 295 104 128 165 308 176 181 187 202 186 163 157 190 178 246 80 235 258 196 183 218 222 223 230 227
334 325 278 312 199 245 77 92 215 225 313 336 326 50 323 247 146 156 195 199 209 174 166 145 267 276 186 167 144 213 191 187 100 9 75 246 288 303 2 84 222 216 205 222 227
337 319 268 162 151 137 79 232 239 235 341 345 349 21 9 268 174 160 195 207 214 182 150 207 294 267 309 145 144 164 170 78 23 121 227 277 273 236 291 311 303 272 190 220 218
345 42 349 152 132 50 165 231 275 261 338 325 331 260 241 250 199 192 208 261 194 192 166 156 111 286 20 165 181 4 216 58 115 128 160 205 261 216 236 237 250 269 242 200 194
348 63 170 154 58 56 182 208 271 279 294 244 234 207 246 296 267 194 208 221 185 150 162 194 158 223 231 258 286 178 219 159 140 219 183 166 264 219 222 235 215 257 244 216 150
37 273 166 324 185 241 282 264 238 257 258 229 268 208 250 280 309 223 219 235 219 153 169 173 204 23 333 347 36 199 198 129 112 89 193 157 257 238 275 273 260 280 275 160 144
82 88 340 73 171 175 288 275 285 278 279 207 237 217 320 280 260 296 313 280 186 191 150 127 137 159 196 210 175 175 146 130 116 119 176 219 255 263 240 232 255 227 204 186 170
151 224 198 246 277 194 159 296 282 289 282 262 262 120 319 283 300 358 268 302 34 31 149 144 186 170 225 201 216 230 187 151 156 208 172 260 200 237 224 218 215 217 200 179 165
33 46 358 276 283 215 173 240 244 292 267 277 234 330 348 229 250 283 281 325 239 333 142 300 208 167 225 183 179 192 227 214 213 190 260 129 245 222 263 59 143 197 184 201 199
338 339 116 264 265 130 225 242 274 313 261 240 279 324 254 197 178 241 218 287 290 293 136 146 134 124 221 194 148 358 255 200 77 36 275 193 242 311 228 207 224 191 196 204 205